Probability
3 3 6 6 0 0 0 0 0 0 0 0 0 0 0 0 0 0 0 6 6 6 13 10 13 16 13 10 6 6 6 3 3 3 3 6 3 10 10 13 10 10 13
0 0 3 0 0 0 0 0 0 0 0 0 0 0 0 0 0 0 0 0 10 10 13 6 6 13 10 3 0 0 3 3 3 3 3 6 3 13 10 13 13 16 16
0 0 0 3 0 0 0 0 0 0 0 0 0 0 0 0 0 0 0 0 0 6 3 6 10 10 10 10 3 0 0 6 6 6 3 6 13 10 10 16 10 13 13
0 0 0 0 0 0 0 0 0 0 0 0 0 0 0 0 0 0 0 0 0 0 0 3 10 3 3 6 10 10 6 3 10 10 10 6 10 16 16 13 13 13 6
0 0 3 3 0 0 0 0 0 0 0 0 0 0 0 0 0 0 0 0 0 0 0 0 0 6 3 6 3 3 0 3 3 6 10 10 13 16 13 16 10 10 10
0 0 0 0 3 3 0 0 0 0 0 0 0 0 0 0 0 0 0 0 0 0 0 0 0 0 3 6 0 0 0 0 0 0 6 13 13 13 10 6 6 6 6
0 0 0 0 0 0 3 3 3 0 0 0 0 0 0 0 0 0 0 0 0 0 0 0 0 0 0 0 0 0 0 0 0 0 0 3 13 6 6 6 3 3 3
0 0 0 0 0 0 0 0 0 0 0 0 0 0 0 0 0 0 0 0 0 0 0 0 0 0 0 0 3 3 0 0 3 3 3 6 3 0 3 3 3 3 3
0 0 0 0 0 0 0 0 0 0 0 0 0 0 0 0 0 0 0 0 0 0 0 0 0 0 0 0 3 3 3 3 3 3 3 0 3 3 3 0 0 0 3
0 0 0 0 0 0 0 0 0 0 0 0 0 0 0 0 0 0 0 0 0 0 0 0 0 0 0 0 0 0 0 0 3 0 0 0 0 0 3 0 3 3 3
0 0 0 0 0 0 0 0 0 0 0 0 0 0 0 0 0 0 0 0 0 0 0 0 0 0 0 0 0 0 0 0 0 0 0 0 0 0 0 3 0 0 0
0 0 0 0 0 0 0 0 0 0 0 0 0 0 0 0 0 0 0 0 0 0 0 0 0 0 0 0 0 0 0 0 0 0 0 0 0 0 0 3 0 0 0
0 0 0 0 0 0 0 0 0 0 0 0 0 0 0 0 0 0 0 0 0 0 0 0 0 0 0 0 0 0 0 0 0 0 0 0 0 0 0 0 0 0 0
0 0 0 0 0 0 0 0 0 0 0 0 0 0 0 0 0 0 0 0 0 0 0 0 0 0 0 0 0 0 0 0 0 0 0 0 0 0 0 0 0 0 0
0 0 0 0 0 0 0 0 0 0 0 0 0 0 0 0 0 0 0 0 0 0 0 0 0 0 0 0 0 0 0 0 0 0 0 0 0 0 0 0 0 0 0
0 0 0 0 0 0 0 0 0 0 0 0 0 0 0 0 0 0 0 0 0 0 0 0 0 0 0 0 0 0 0 0 0 0 0 0 0 0 0 0 0 0 0
0 0 0 0 0 0 0 0 0 0 0 0 0 0 0 0 0 0 0 0 0 0 0 0 0 0 0 0 0 0 0 0 0 0 0 0 0 0 0 0 0 0 0
0 0 0 0 0 0 0 0 0 0 0 0 0 0 0 0 0 0 0 0 0 0 0 0 0 0 0 0 0 0 0 0 0 0 0 0 0 0 0 0 0 0 0
0 0 0 0 0 0 0 0 0 0 0 0 0 0 0 0 0 0 0 0 0 0 0 0 0 0 0 0 0 0 0 0 0 0 0 0 0 0 0 0 0 0 0
0 0 0 0 0 0 0 0 0 0 0 0 0 0 0 0 0 0 0 0 0 0 0 0 0 0 0 0 0 0 0 0 0 0 0 0 0 0 0 0 0 0 0
0 0 0 0 0 0 0 0 0 0 0 0 0 0 0 0 0 0 0 0 0 0 0 0 0 0 0 0 0 0 0 0 0 0 0 0 0 0 0 0 0 0 0
0 0 0 0 0 0 0 0 0 0 0 0 0 0 0 0 0 0 0 0 0 0 0 0 0 0 0 0 0 0 0 0 0 0 0 0 0 0 0 0 0 0 0
3 3 0 3 3 3 0 0 0 0 0 0 0 0 0 0 0 0 0 0 0 0 0 0 0 0 0 0 0 0 0 0 0 0 0 0 0 0 0 0 0 0 0
3 3 3 3 6 3 0 0 0 0 0 0 0 0 0 0 0 0 0 0 0 0 0 0 0 0 0 0 0 0 0 0 0 0 0 0 0 0 0 0 0 0 0
0 0 0 3 0 0 0 0 0 0 0 0 0 0 0 0 0 0 0 0 0 0 0 0 0 0 0 0 0 0 0 0 0 0 0 0 0 0 0 0 0 0 0
0 0 0 0 3 0 0 0 0 0 0 0 0 0 0 0 0 0 0 0 0 0 0 0 0 0 0 0 0 0 0 0 0 0 0 0 0 0 0 0 0 0 0
Height
5850 5850 5850 5849 5849 5849 5849 5849 5848 5848 5848 5848 5848 5848 5848 5848 5848 5849 5849 5849 5849 5849 5849 5849 5850 5850 5850 5850 5850 5851 5851 5851 5851 5851 5852 5852 5852 5852 5852 5852 5852 5852 5852
5849 5849 5848 5848 5848 5848 5847 5847 5847 5847 5847 5846 5846 5846 5847 5847 5847 5846 5846 5846 5846 5846 5846 5846 5846 5846 5847 5847 5847 5847 5848 5848 5848 5848 5848 5848 5848 5848 5848 5848 5848 5848 5848
5848 5848 5847 5847 5847 5846 5846 5846 5846 5845 5845 5845 5845 5845 5845 5845 5844 5844 5844 5844 5844 5844 5843 5843 5844 5844 5844 5844 5844 5844 5844 5845 5845 5845 5845 5845 5845 5844 5845 5844 5844 5844 5844
5847 5846 5846 5846 5846 5845 5845 5845 5844 5844 5844 5843 5843 5843 5843 5843 5843 5842 5842 5842 5842 5841 5841 5841 5841 5841 5841 5841 5841 5841 5841 5841 5841 5841 5841 5841 5841 5841 5841 5840 5840 5840 5839
5846 5845 5845 5845 5844 5844 5844 5844 5843 5843 5842 5842 5842 5841 5841 5841 5841 5840 5840 5840 5839 5839 5839 5838 5838 5838 5838 5838 5837 5837 5837 5838 5838 5838 5838 5837 5837 5837 5837 5836 5836 5836 5835
5844 5844 5844 5843 5843 5842 5842 5842 5842 5841 5841 5841 5840 5840 5840 5839 5839 5838 5838 5837 5837 5836 5836 5836 5835 5835 5835 5834 5834 5834 5834 5834 5834 5834 5834 5834 5833 5833 5833 5832 5832 5832 5831
5843 5843 5842 5842 5841 5841 5841 5840 5840 5840 5840 5839 5839 5838 5838 5837 5837 5836 5835 5835 5834 5834 5833 5833 5833 5832 5832 5832 5832 5832 5831 5831 5831 5831 5831 5830 5830 5830 5829 5829 5829 5828 5828
5841 5841 5841 5840 5840 5839 5839 5839 5838 5838 5838 5837 5837 5836 5836 5836 5835 5834 5833 5833 5832 5831 5831 5830 5830 5829 5829 5828 5828 5828 5828 5828 5828 5828 5827 5827 5827 5826 5826 5826 5825 5824 5824
5840 5840 5839 5839 5839 5838 5838 5837 5837 5836 5836 5835 5834 5834 5834 5833 5832 5832 5831 5830 5829 5829 5828 5827 5826 5826 5826 5825 5825 5825 5825 5825 5825 5824 5824 5824 5823 5823 5823 5822 5822 5821 5820
5838 5838 5838 5837 5837 5836 5836 5836 5835 5835 5834 5833 5832 5832 5831 5830 5830 5829 5828 5827 5827 5826 5825 5824 5823 5823 5822 5822 5822 5822 5822 5822 5821 5821 5821 5820 5820 5820 5819 5819 5818 5817 5817
5836 5836 5836 5835 5835 5835 5834 5834 5833 5833 5832 5831 5830 5830 5828 5828 5827 5826 5826 5825 5824 5823 5822 5822 5821 5820 5819 5819 5819 5819 5819 5819 5818 5818 5817 5817 5817 5816 5816 5815 5815 5814 5813
5835 5834 5833 5833 5833 5833 5832 5832 5831 5830 5830 5829 5828 5827 5826 5825 5824 5824 5823 5822 5821 5821 5820 5819 5818 5817 5816 5816 5816 5816 5815 5815 5815 5814 5814 5814 5813 5813 5812 5811 5811 5810 5809
5833 5832 5831 5831 5831 5830 5830 5830 5829 5828 5827 5827 5826 5825 5824 5823 5822 5821 5820 5819 5819 5818 5817 5816 5815 5815 5814 5813 5813 5813 5812 5812 5812 5811 5811 5810 5809 5809 5808 5807 5807 5806 5805
5830 5830 5829 5828 5828 5828 5827 5827 5826 5826 5825 5824 5823 5822 5822 5821 5820 5819 5818 5817 5816 5815 5815 5814 5813 5812 5811 5810 5810 5809 5809 5808 5808 5807 5807 5806 5806 5805 5804 5804 5803 5803 5802
5828 5827 5826 5826 5825 5825 5824 5824 5823 5823 5822 5821 5820 5820 5819 5818 5817 5816 5815 5815 5814 5813 5812 5811 5810 5809 5808 5807 5807 5806 5805 5805 5804 5804 5803 5802 5802 5801 5801 5800 5799 5799 5798
5825 5825 5824 5823 5822 5822 5821 5820 5820 5819 5819 5818 5817 5817 5816 5815 5814 5814 5812 5812 5811 5810 5809 5808 5808 5806 5805 5804 5803 5803 5802 5802 5801 5800 5800 5799 5799 5798 5797 5796 5796 5795 5794
5822 5821 5821 5820 5819 5818 5818 5817 5816 5816 5815 5815 5814 5813 5813 5812 5812 5811 5809 5808 5807 5807 5806 5805 5804 5803 5802 5801 5800 5799 5799 5798 5797 5797 5796 5796 5795 5794 5794 5793 5792 5791 5790
5819 5818 5817 5816 5815 5815 5814 5813 5813 5812 5811 5811 5810 5810 5809 5809 5808 5807 5806 5805 5804 5803 5802 5801 5801 5800 5799 5798 5797 5796 5795 5794 5793 5793 5792 5792 5791 5790 5790 5789 5788 5787 5786
5815 5814 5813 5812 5811 5811 5810 5809 5808 5808 5807 5806 5806 5805 5805 5805 5804 5804 5803 5802 5800 5799 5798 5798 5797 5796 5795 5794 5793 5792 5791 5790 5789 5788 5787 5787 5786 5785 5785 5784 5783 5782 5781
5810 5809 5809 5808 5807 5806 5805 5805 5804 5803 5803 5802 5802 5801 5801 5800 5800 5800 5799 5798 5796 5795 5794 5793 5793 5791 5790 5789 5789 5788 5787 5786 5785 5784 5783 5782 5781 5780 5780 5779 5778 5777 5776
5806 5805 5804 5803 5802 5801 5801 5800 5799 5798 5798 5797 5797 5796 5796 5795 5795 5795 5794 5793 5792 5791 5790 5789 5788 5787 5786 5785 5784 5783 5782 5781 5780 5778 5777 5776 5776 5775 5774 5773 5772 5771 5770
5801 5800 5799 5798 5797 5796 5795 5794 5793 5793 5792 5792 5792 5791 5791 5790 5790 5789 5789 5788 5787 5786 5785 5784 5783 5782 5781 5780 5779 5777 5777 5776 5774 5773 5772 5771 5770 5769 5768 5767 5766 5764 5763
5796 5794 5793 5792 5791 5790 5789 5788 5787 5787 5786 5786 5786 5785 5785 5785 5784 5784 5783 5782 5781 5780 5779 5779 5777 5776 5775 5774 5773 5772 5771 5770 5768 5767 5766 5765 5764 5763 5762 5760 5759 5758 5756
5790 5789 5788 5787 5785 5784 5783 5782 5780 5780 5779 5779 5779 5779 5779 5778 5778 5778 5777 5776 5775 5774 5773 5773 5771 5770 5769 5768 5767 5766 5764 5763 5763 5761 5760 5759 5758 5757 5756 5755 5753 5751 5750
5785 5783 5782 5781 5779 5778 5776 5774 5773 5773 5772 5772 5772 5772 5771 5771 5771 5771 5770 5770 5769 5768 5767 5766 5765 5764 5762 5761 5760 5759 5758 5757 5756 5756 5754 5753 5752 5751 5750 5749 5747 5746 5744
5778 5777 5776 5774 5773 5771 5769 5768 5767 5766 5766 5765 5765 5764 5764 5764 5764 5764 5763 5763 5763 5762 5761 5760 5759 5758 5756 5755 5754 5753 5752 5751 5750 5749 5748 5747 5746 5745 5744 5743 5741 5739 5738
Wind_Speed
8 7 8 8 8 8 8 9 8 9 8 8 8 8 9 9 10 10 10 11 13 13 13 13 14 14 14 14 15 15 15 15 15 16 16 17 17 17 17 17 17 17 18
7 8 8 8 8 8 8 8 8 9 8 8 8 8 8 8 9 9 10 11 12 13 13 14 14 14 14 14 14 14 14 15 15 15 15 16 16 16 17 17 17 17 18
8 8 8 8 8 8 8 8 8 9 9 8 8 8 8 9 9 9 9 10 10 10 11 12 12 13 13 13 14 14 14 15 15 15 15 16 16 16 17 17 17 18 18
9 8 8 8 8 8 8 8 8 9 8 7 8 8 8 9 9 9 9 10 10 10 10 11 11 12 13 14 14 15 15 15 15 15 15 16 16 16 16 16 16 17 17
9 9 8 8 8 8 8 7 8 7 7 7 7 7 8 9 9 9 10 10 11 11 12 12 12 13 14 14 14 14 15 15 14 14 15 15 15 16 16 16 16 16 17
9 9 8 8 8 8 8 7 7 7 7 7 7 8 8 9 9 10 10 10 11 11 12 12 12 13 13 13 13 13 14 14 13 14 14 14 14 15 15 15 15 15 16
8 8 8 8 8 8 7 7 7 7 8 8 8 8 9 9 10 11 11 11 11 11 11 11 12 12 13 13 12 12 13 13 13 13 13 13 13 14 15 15 15 15 16
9 8 8 8 8 7 7 7 7 8 8 9 9 9 9 10 10 11 11 11 11 11 12 12 12 12 12 12 12 12 12 13 13 13 13 13 13 13 14 14 15 15 15
8 8 8 8 8 7 7 7 8 8 8 9 9 9 10 10 10 10 11 11 11 11 12 12 12 13 13 12 11 12 12 12 12 13 13 13 13 14 13 13 13 14 14
8 8 7 7 8 8 8 8 7 7 8 8 9 10 10 11 11 11 11 11 11 11 11 12 11 12 12 11 11 12 12 12 12 13 14 14 14 14 14 13 14 14 15
9 8 8 7 7 7 7 8 8 8 9 9 10 10 11 11 11 11 11 11 11 11 11 12 11 11 10 10 11 12 12 12 12 12 13 14 14 14 14 14 14 14 14
8 8 8 8 8 8 8 8 9 9 10 10 10 10 11 12 11 11 11 11 11 11 11 11 11 11 11 11 11 12 12 13 13 13 13 13 13 14 14 14 15 15 14
9 9 8 8 8 9 9 10 10 10 10 10 10 11 11 11 11 11 10 11 11 12 11 11 11 12 12 12 12 12 13 13 14 14 14 14 13 13 14 14 14 14 14
10 10 9 9 10 10 10 10 11 11 11 11 11 11 10 11 10 10 11 11 11 11 12 11 12 12 12 13 13 13 13 13 14 14 14 14 14 13 13 13 13 14 14
11 11 11 11 11 11 11 12 11 11 11 11 11 11 11 11 11 11 12 12 12 12 12 12 12 12 13 13 13 13 13 13 13 13 13 14 13 12 12 12 13 13 14
12 12 12 12 12 12 12 12 12 12 12 12 12 12 12 12 12 13 13 13 13 13 13 13 13 13 13 13 13 13 13 13 14 14 13 13 12 12 12 12 13 13 14
13 13 13 13 13 13 13 13 13 13 13 13 13 13 13 13 13 13 13 14 14 13 13 13 13 13 13 13 13 13 13 14 14 14 14 13 13 14 14 14 14 14 14
14 14 14 14 14 14 14 14 14 15 15 15 15 15 14 15 14 14 14 14 14 14 14 14 14 14 14 14 14 14 15 15 15 15 15 15 15 15 15 15 15 15 15
16 16 16 15 15 15 15 15 15 16 16 16 16 16 16 16 15 15 15 15 15 15 15 15 15 15 15 15 15 15 15 15 15 15 16 16 16 16 16 16 16 17 17
17 17 17 16 16 16 16 16 17 17 17 17 17 17 17 16 16 16 16 16 16 16 16 16 16 15 16 16 16 16 16 16 16 17 17 17 17 17 17 17 18 19 19
18 18 18 18 18 18 18 18 18 18 18 18 18 18 18 18 17 17 17 17 17 17 17 17 17 17 16 16 17 17 17 17 17 18 17 17 18 18 18 19 19 19 20
19 19 19 19 19 19 19 20 20 20 20 19 19 19 19 19 18 18 18 18 18 18 18 18 18 18 18 18 18 18 18 18 18 18 18 18 19 19 19 20 20 21 21
20 19 19 20 20 20 20 20 21 21 21 20 20 20 20 19 19 19 19 19 19 19 19 19 19 19 18 19 19 19 19 19 19 18 18 18 18 18 19 20 21 21 21
20 20 20 21 21 21 21 22 22 22 22 22 22 22 22 21 21 20 20 19 20 20 20 20 20 20 20 20 20 20 20 20 19 18 18 19 19 19 18 19 20 21 21
21 21 21 22 23 23 23 22 22 22 22 22 22 22 23 23 22 22 21 20 20 20 20 20 20 21 21 21 20 20 20 20 19 19 19 20 20 19 19 19 20 21 21
22 22 22 23 24 24 23 23 22 23 23 23 22 22 22 23 23 23 22 21 21 21 21 21 21 22 22 21 20 20 21 21 21 20 20 20 20 21 21 21 21 21 22
Wind_Direction
306 298 291 293 293 295 293 289 287 290 289 281 280 275 271 268 268 272 274 276 274 272 271 271 271 272 272 270 268 265 266 269 270 270 270 271 271 271 273 275 276 275 274
309 305 296 294 297 297 294 291 289 293 294 284 284 284 280 275 275 276 276 276 279 277 274 271 271 271 272 271 270 268 270 272 272 272 271 273 273 274 275 275 275 275 275
304 301 300 299 303 301 297 296 295 297 300 291 285 285 287 281 280 280 279 278 279 280 279 278 277 276 274 272 271 271 273 275 275 275 274 276 275 275 277 276 276 275 274
308 304 301 299 303 303 301 303 301 299 302 297 291 290 290 288 287 287 283 284 283 283 283 283 282 279 277 277 277 274 275 276 277 278 278 279 278 276 277 277 276 275 274
309 306 303 301 304 304 303 307 303 303 306 306 301 296 293 291 292 291 288 291 289 289 287 285 282 279 278 278 278 276 275 276 276 279 280 279 281 278 277 276 276 276 276
308 306 303 302 303 302 301 304 304 307 310 310 305 300 297 295 293 295 295 294 293 292 290 287 285 282 280 277 277 278 279 278 278 280 281 280 282 279 276 276 279 281 279
304 303 305 304 302 298 293 295 298 303 309 307 301 299 298 300 299 299 297 297 297 295 292 289 289 287 286 281 278 280 279 281 285 284 284 284 284 281 278 277 279 282 280
304 299 302 303 302 297 298 297 296 300 303 305 304 301 299 300 299 299 297 296 293 291 290 290 293 289 286 283 279 278 278 282 283 284 286 288 288 287 285 283 282 284 282
310 304 299 300 300 298 297 295 294 299 303 305 305 303 300 299 299 301 299 298 298 296 293 293 294 292 287 290 283 279 280 281 282 283 285 287 287 289 288 286 285 287 286
308 305 304 304 300 296 297 296 296 297 301 306 309 307 305 303 304 305 302 301 303 304 304 302 297 296 291 286 283 283 284 282 279 281 282 284 286 287 287 287 288 288 290
303 300 298 301 302 302 298 299 302 303 303 305 307 309 309 308 308 307 305 304 306 307 308 306 298 293 288 280 282 283 282 280 279 282 284 284 283 284 285 285 288 288 289
303 301 301 300 297 296 297 297 300 303 306 308 308 308 309 311 310 309 306 305 305 307 308 307 303 296 288 284 283 282 282 280 282 283 285 286 285 286 285 284 286 289 292
299 297 294 296 297 297 297 297 297 299 301 304 306 307 309 310 310 309 307 306 305 308 307 305 304 300 293 290 287 283 281 283 285 285 286 287 289 292 290 287 288 290 291
301 298 294 294 297 299 298 299 299 300 301 301 301 302 304 304 307 310 310 310 309 310 311 309 306 305 301 297 292 289 286 286 287 289 290 288 290 291 290 291 290 290 290
306 304 298 296 297 297 297 296 297 298 298 297 297 297 299 300 302 306 308 308 307 307 307 308 309 307 305 303 298 296 294 294 292 294 294 293 291 291 293 296 296 295 296
302 303 303 301 298 296 295 294 294 296 294 292 293 294 294 298 302 303 306 307 305 303 303 305 307 305 306 303 299 296 295 295 295 294 296 296 295 295 296 298 301 301 300
301 300 300 298 298 297 296 294 293 295 292 288 288 289 290 293 297 299 301 303 303 303 301 302 303 304 304 303 301 299 297 295 293 293 292 289 292 291 292 294 295 296 297
298 298 296 295 294 294 295 294 292 292 288 284 284 284 286 289 292 295 298 300 300 300 300 299 298 299 300 300 298 298 297 296 293 291 287 288 289 289 289 291 292 293 294
295 295 294 291 291 291 293 294 293 292 287 285 283 283 284 286 288 292 294 297 297 296 295 295 294 293 295 296 294 295 296 295 295 293 290 289 289 289 289 290 291 293 293
294 292 291 290 290 291 291 292 293 293 289 287 285 284 285 284 286 289 292 295 295 294 291 291 291 293 294 295 294 294 294 293 294 294 293 290 287 287 289 290 291 291 290
294 292 289 289 290 290 290 290 291 290 287 286 285 284 284 284 285 287 290 293 294 293 291 290 291 293 295 295 294 293 293 294 293 293 292 291 288 287 287 289 290 290 290
294 293 291 289 289 289 289 289 289 288 285 282 282 282 281 281 284 286 288 290 292 292 292 291 292 291 292 293 292 292 293 294 294 293 293 292 291 289 288 289 290 291 291
294 293 291 290 290 289 289 289 288 286 283 280 280 280 279 279 281 284 286 288 289 290 291 290 290 291 292 293 292 292 294 295 295 294 293 295 293 292 290 290 290 292 293
293 292 290 291 291 291 290 288 286 284 282 280 279 279 278 276 278 281 282 286 287 288 288 288 288 289 290 292 293 293 294 294 294 293 293 294 294 292 292 293 292 293 294
292 292 291 290 291 291 291 289 286 284 282 280 279 279 278 276 276 277 280 282 284 286 286 286 287 289 290 290 291 291 292 293 292 293 293 294 294 294 294 294 294 293 292
292 291 290 290 290 290 290 287 286 286 284 280 278 279 278 277 277 276 278 280 281 284 286 286 287 289 289 288 287 288 290 292 292 292 293 293 293 294 295 295 294 294 293